Weather History for KRUG - October, 2011

Change the Weather History Date:

Sunday, October 30, 2011

  Actual Average Record
Temperature  
Mean Temperature 38 °F -  
Max Temperature 42 °F 47 °F 80 °F (1950)
Min Temperature 32 °F 27 °F -6 °F (1991)
Degree Days  
Heating Degree Days 28    
Moisture  
Dew Point 32 °F    
Average Humidity 87    
Maximum Humidity 100    
Minimum Humidity 61    
Precipitation  
Precipitation 0.00 in - - ()
Sea Level Pressure  
Sea Level Pressure 29.84 in    
Wind  
Wind Speed 14 mph (WNW)    
Max Wind Speed 23 mph    
Max Gust Speed 29 mph    
Visibility 10 miles    
Events      
Averages and records for this station are not official NWS values.
T = Trace of Precipitation, MM = Missing Value Source: NWS Daily Summary

Daily Weather History Graph

Daily Weather History Graph

Search for Another Location

Airport or City:

Trip Planner

Search our weather history database for the weather conditions in past years. The results will help you decide how hot, cold, wet, or windy it might be!

Date:

Astronomy

Oct. 30, 2011 Rise Set
Actual Time 8:22 AM CDT 6:24 PM CDT
Civil Twilight 7:49 AM CDT 6:56 PM CDT
Nautical Twilight 7:13 AM CDT 7:33 PM CDT
Astronomical Twilight 6:36 AM CDT 8:09 PM CDT
Moon 12:57 PM CDT (10/30) 9:41 PM CDT (10/30)
Length of Visible Light 11h 06m
Length of Day
10h 01m
Waxing Crescent, 20% of the Moon is Illuminated
Oct 30
Waxing Crescent
Nov 2
First Quarter
Nov 10
Full
Nov 18
Last Quarter
Nov 25
New

Hourly Weather History & Observations

Time (CDT) Temp. Windchill Dew Point Humidity Pressure Visibility Wind Dir Wind Speed Gust Speed Precip Events Conditions
12:15 AM 37.4 °F 28.9 °F 35.6 °F 93% 29.77 in 10.0 mi WNW 13.8 mph - N/A   Overcast
12:35 AM 37.4 °F 30.3 °F 35.6 °F 93% 29.78 in 10.0 mi WNW 10.4 mph - N/A   Mostly Cloudy
12:55 AM 37.4 °F 30.3 °F 35.6 °F 93% 29.77 in 10.0 mi WNW 10.4 mph - N/A   Mostly Cloudy
1:15 AM 37.4 °F 30.8 °F 35.6 °F 93% 29.78 in 10.0 mi WNW 9.2 mph - N/A   Overcast
1:35 AM 37.4 °F 30.3 °F 35.6 °F 93% 29.78 in 10.0 mi West 10.4 mph - N/A   Overcast
1:55 AM 37.4 °F 29.3 °F 35.6 °F 93% 29.78 in 10.0 mi West 12.7 mph - N/A   Overcast
2:35 AM 37.4 °F 29.8 °F 33.8 °F 87% 29.79 in 10.0 mi WNW 11.5 mph - N/A   Overcast
2:55 AM 37.4 °F 28.9 °F 33.8 °F 87% 29.79 in 10.0 mi West 13.8 mph - N/A   Overcast
3:15 AM 37.4 °F 28.9 °F 32.0 °F 81% 29.79 in 10.0 mi West 13.8 mph - N/A   Overcast
3:35 AM 35.6 °F 26.2 °F 32.0 °F 87% 29.80 in 10.0 mi West 15.0 mph - N/A   Overcast
3:55 AM 35.6 °F 25.5 °F 32.0 °F 87% 29.80 in 10.0 mi WNW 17.3 mph 23.0 mph N/A   Overcast
4:15 AM 35.6 °F 26.2 °F 32.0 °F 87% 29.80 in 10.0 mi West 15.0 mph - N/A   Overcast
4:35 AM 35.6 °F 25.5 °F 32.0 °F 87% 29.80 in 10.0 mi WNW 17.3 mph - N/A   Overcast
4:55 AM 35.6 °F 25.9 °F 32.0 °F 87% 29.80 in 10.0 mi WNW 16.1 mph 24.2 mph N/A   Overcast
5:15 AM 35.6 °F 26.2 °F 32.0 °F 87% 29.81 in 10.0 mi WNW 15.0 mph - N/A   Overcast
5:35 AM 35.6 °F 26.6 °F 32.0 °F 87% 29.81 in 10.0 mi WNW 13.8 mph - N/A   Overcast
5:55 AM 35.6 °F 27.1 °F 32.0 °F 87% 29.81 in 10.0 mi WNW 12.7 mph - N/A   Overcast
6:15 AM 35.6 °F 25.9 °F 32.0 °F 87% 29.82 in 10.0 mi WNW 16.1 mph 19.6 mph N/A   Overcast
6:35 AM 35.6 °F 26.6 °F 32.0 °F 87% 29.82 in 10.0 mi WNW 13.8 mph - N/A   Overcast
7:15 AM 35.6 °F 25.9 °F 32.0 °F 87% 29.83 in 10.0 mi NW 16.1 mph - N/A   Mostly Cloudy
7:35 AM 35.6 °F 25.2 °F 32.0 °F 87% 29.86 in 10.0 mi WNW 18.4 mph - N/A   Overcast
7:55 AM 35.6 °F 25.9 °F 32.0 °F 87% 29.86 in 10.0 mi WNW 16.1 mph 21.9 mph N/A   Overcast
8:15 AM 35.6 °F 25.2 °F 32.0 °F 87% 29.87 in 10.0 mi WNW 18.4 mph - N/A   Overcast
8:35 AM 35.6 °F 24.8 °F 32.0 °F 87% 29.87 in 10.0 mi WNW 19.6 mph 24.2 mph N/A   Overcast
8:55 AM 35.6 °F 25.9 °F 32.0 °F 87% 29.89 in 10.0 mi WNW 16.1 mph 23.0 mph N/A   Overcast
9:15 AM 35.6 °F 25.9 °F 32.0 °F 87% 29.89 in 10.0 mi NW 16.1 mph 23.0 mph N/A   Overcast
9:35 AM 35.6 °F 24.8 °F 32.0 °F 87% 29.90 in 10.0 mi WNW 19.6 mph 24.2 mph N/A   Overcast
9:55 AM 35.6 °F 25.9 °F 32.0 °F 87% 29.90 in 10.0 mi WNW 16.1 mph - N/A   Overcast
10:15 AM 35.6 °F 25.2 °F 32.0 °F 87% 29.91 in 10.0 mi NW 18.4 mph - N/A   Overcast
10:35 AM 35.6 °F 25.5 °F 32.0 °F 87% 29.91 in 10.0 mi WNW 17.3 mph - N/A   Overcast
1:35 PM 42.8 °F 33.5 °F 30.2 °F 61% 29.92 in 10.0 mi NW 23.0 mph 28.8 mph N/A   Mostly Cloudy
6:35 PM 35.6 °F 32.8 °F 28.4 °F 75% 29.94 in 10.0 mi West 3.5 mph - N/A   Clear
7:55 PM 33.8 °F 27.7 °F 28.4 °F 81% 29.94 in 10.0 mi SW 6.9 mph - N/A   Clear
9:35 PM 32.0 °F 28.7 °F 32.0 °F 100% 29.93 in 9.0 mi South 3.5 mph - N/A   Scattered Clouds